Hourly Data Report for May 25, 2020

STE-ANNE-DE-BELLEVUE 1
QUEBEC
Current Station Operator: ECCC - MSC

45°25'38.000" N
73°55'45.000" W
39.00 m
702FHL8
71377
WVQ

Download Data

Hourly Data (May 2020)
Hourly Data Report for May 25, 2020
TIME
LST
Temp Definition
°C
Dew Point Definition
°C
Rel Hum Definition
%
Precip. Amount Definition
mm

Wind Dir Definition
10's deg

Wind Spd Definition
km/h
Visibility Definition
km
Stn Press Definition
kPa
Hmdx Definition


Wind Chill Definition


Weather Definition


00:00 17.9 7.2 49 0.0 12 3   101.26     LegendNANA
01:00 17.5 7.6 52 0.0 13 2   101.27     LegendNANA
02:00 17.0 7.6 54 0.0 13 2   101.30     LegendNANA
03:00 16.0 7.2 56 0.0 12 6   101.32     LegendNANA
04:00 15.6 7.4 58 0.0 13 7   101.36     LegendNANA
05:00 15.8 7.2 56 0.0 13 8   101.38     LegendNANA
06:00 15.9 7.6 58 0.0 14 9   101.40     LegendNANA
07:00 16.6 8.5 59 0.0 13 9   101.41     LegendNANA
08:00 17.9 9.1 56 0.0 13 10   101.43     LegendNANA
09:00 18.5 9.4 56 0.0 34 2   101.42     LegendNANA
10:00 22.3 11.2 50 0.0 14 6   101.38     LegendNANA
11:00 22.2 12.9 56 0.0 21 6   101.39 25   LegendNANA
12:00 21.5 14.3 63 0.0 26 11   101.39 25   LegendNANA
13:00 20.8 14.6 68 0.0 25 12   101.43 25   LegendNANA
14:00 21.3 14.7 66 0.0 18 8   101.37 25   LegendNANA
15:00 21.6 15.0 66 0.0 23 5   101.37 26   LegendNANA
16:00 22.1 15.5 66 0.0 25 8   101.34 26   LegendNANA
17:00 22.3 15.8 66 0.0 20 5   101.29 27   LegendNANA
18:00 22.2 15.8 67 0.0 22 2   101.29 27   LegendNANA
19:00 21.6 15.9 70 0.0 16 2   101.29 26   LegendNANA
20:00 19.5 15.1 76 0.0 12 3   101.31     LegendNANA
21:00 17.8 15.2 85 0.0   0   101.35     LegendNANA
22:00 18.1 15.1 83 0.0 34 4   101.38     LegendNANA
23:00 16.7 15.0 90 0.0   0   101.40     LegendNANA

Notes on Data Quality.

Legend

  • E = Estimated
  • M = Missing
  • NA = Not Available*
  • [empty] = Indicates an unobserved value
Date modified: